User: anonymous   Login
Location: �chenoz-la-M�line
(47.6009°N, 6.1354°E)
Time: 19:10:31
(UTC+00:00)
Language:

Cosmos 2297 - Orbit

View from above orbital plane
View from above orbital plane
View from above satellite
View from above satellite

Ground track
Ground track

The orbit data is extracted from the following two-line orbital elements,

1 23404U 94077A   21110.58205114  .00000186  00000-0  12393-3 0  9997
2 23404  71.0159 235.1121 0015545 184.9293 175.1679 14.13554215362344
Epoch (UTC): 20 April 2021 13:58:09
Eccentricity: 0.0015545
inclination: 71.0159°
perigee height: 836 km
apogee height: 858 km
right ascension of ascending node: 235.1121°
argument of perigee: 184.9293°
revolutions per day: 14.13554215
mean anomaly at epoch: 175.1679°
orbit number at epoch: 36234

The dashed part of the orbit path shows where the satellite is in the earth's shadow,  

DLR